Location: Bandy
(45.8833°N, 2.0667°E)
Time: 07:22:35
(UTC+00:00)

Daily predictions for brighter satellites

Satellite Brightness Start Highest point End
(mag) Time Altitude Azimuth Time Altitude Azimuth Time Altitude Azimuth
Cosmos 1346 Rocket 4.4 19:39:51 10° SW 19:43:36 40° WNW 19:47:24 10° N
Cosmos 1900 4.4 19:39:20 10° SSW 19:44:10 59° ESE 19:49:07 10° NE
MONITOR-E 3.4 19:45:21 10° SSE 19:47:43 74° ENE 19:50:06 10° N
USA 267 3.5 19:43:06 10° ENE 19:49:25 49° SE 19:55:43 10° SSW
Cosmos 1821 Rocket 4.4 19:46:04 10° SSE 19:51:44 42° E 19:57:31 10° NNE
COSMOS 2406 3.4 19:47:50 10° S 19:53:22 50° ESE 19:58:54 10° NE
Shenzhou-11 Module 2.0 19:51:15 10° WSW 19:53:29 37° S 19:55:30 12° ESE
Cosmos 1743 Rocket 3.7 19:50:18 10° S 19:54:44 88° W 19:59:14 10° N
Cosmos 2366 rocket 4.2 19:49:18 10° S 19:55:34 80° W 20:01:48 10° N
SL-16 R/B 4.4 19:54:58 10° NNE 19:56:50 11° NE 19:58:42 10° NE
CZ-2C R/B 3.9 19:52:24 10° NNE 19:56:57 54° E 20:01:24 10° S
Intercosmos 25 3.9 19:53:57 10° N 19:58:15 39° ENE 20:01:26 10° SE
Lacrosse 5 3.8 19:55:22 10° NW 19:59:30 24° N 20:03:39 10° ENE
Cosmos 1862 3.4 19:59:01 10° S 20:03:00 60° E 20:07:00 10° NNE
Cosmos 2369 4.3 19:57:34 10° NNW 20:03:03 44° NE 20:08:05 12° SE
Sich 1 3.6 19:59:49 10° SSE 20:03:56 40° E 20:08:07 10° NNE
SJ-6B 3.9 20:01:31 10° S 20:05:27 47° W 20:09:21 10° NNW
BREEZE-M DEB (TANK) 3.0 20:03:30 10° W 20:07:23 48° NNW 20:09:21 10° ENE
Meteor 2-6 Rocket 4.2 20:01:57 10° N 20:07:28 89° E 20:13:07 10° S
Cosmos 1818 3.8 20:02:10 10° NNW 20:07:36 61° NE 20:12:24 13° SE
IRIDIUM 106 4.3 20:02:43 10° S 20:07:52 66° E 20:13:03 10° N
Cosmos 2082 Rocket 3.1 20:03:55 10° SSE 20:08:40 28° ESE 20:13:24 10° NE
Cosmos 1500 Rocket 4.2 20:09:56 10° SSW 20:14:10 57° WNW 20:18:26 10° N
Spot 2 Rocket 4.2 20:11:25 13° SE 20:15:33 38° ENE 20:20:16 10° N
Resurs 1-3 3.9 20:14:48 10° S 20:19:09 69° WSW 20:23:33 10° NNW
USA 186 4.4 20:18:49 10° WSW 20:19:12 10° W 20:19:35 10° W
Cosmos 2322 Rocket 4.4 20:16:49 10° N 20:19:31 13° NE 20:22:12 10° ENE
Meteor 1-4 Rocket 3.6 20:17:38 10° N 20:20:42 28° ENE 20:22:27 18° ESE
Cosmos 1190 Rocket 4.4 20:16:31 10° S 20:21:27 42° ESE 20:26:26 10° NE
Cosmos 1184 Rocket 4.5 20:21:01 16° ESE 20:21:36 17° E 20:23:51 10° NE
Terra 3.7 20:21:08 11° E 20:23:48 17° ENE 20:26:46 10° NNE
Cosmos 407 Rocket 3.6 20:19:09 10° S 20:24:20 55° ESE 20:29:31 10° NNE
CZ-2C R/B 3.3 20:19:37 10° N 20:24:40 55° WNW 20:29:44 10° SSW
USA 234 3.6 20:18:46 11° ESE 20:24:53 60° NNE 20:31:18 10° NW
SL-8 R/B 4.1 20:20:41 10° WNW 20:25:24 52° SSW 20:28:49 18° SE
Cosmos 1666 Rocket 3.9 20:21:27 10° SSE 20:25:32 44° E 20:29:40 10° NNE
Cosmos 1238 Rocket 4.4 20:28:02 12° E 20:28:02 12° E 20:28:53 10° ENE
MetOp-B 4.2 20:25:44 13° SSE 20:30:27 68° ENE 20:35:47 10° N
Meteor 1-27 Rocket 3.8 20:25:39 10° N 20:31:34 74° ENE 20:36:53 13° SSE
USA 238 DEB 4.3 20:31:25 10° S 20:37:04 31° ESE 20:42:56 10° NE
USA 238 4.3 20:31:33 10° S 20:37:12 31° ESE 20:43:02 10° NE
BREEZE-M DEB (TANK) 3.6 20:33:03 10° WNW 20:37:14 24° SW 20:39:00 15° S
Cosmos 1805 Rocket 3.9 20:32:51 10° SSW 20:37:15 67° W 20:41:43 10° N
SPOT 5 3.9 20:35:54 18° ESE 20:37:56 25° ENE 20:41:30 10° N
SPOT 1/Viking Rocket 3.8 20:39:53 20° SE 20:43:21 55° ENE 20:48:28 10° N
Cosmos 1980 Rocket 2.5 20:38:00 10° NNW 20:43:36 53° ENE 20:47:05 22° SE
SL-4 R/B 1.8 20:43:03 10° SW 20:46:59 60° SSE 20:50:37 10° ENE
BREEZE-M DEB (TANK) 2.9 20:45:34 10° W 20:48:11 60° N 20:54:37 10° ENE
Genesis I 3.9 20:45:17 10° NNW 20:49:00 42° NE 20:50:44 26° ESE
Cosmos 405 Rocket 4.0 20:49:22 21° E 20:49:22 21° E 20:52:12 10° NE
Cosmos 1140 Rocket 3.4 20:44:46 10° S 20:49:58 71° ESE 20:55:13 10° NNE
ATLAS 5 CENTAUR R/B 3.2 20:46:31 10° NW 20:52:04 45° WSW 20:57:17 15° S
Cosmos 1023 Rocket 4.4 20:49:13 10° SSW 20:54:29 80° ESE 20:59:47 10° NNE
Cosmos 389 Rocket 4.2 20:52:01 10° NNW 20:55:02 29° W 20:58:04 10° SSW
USA 32 4.2 20:53:02 22° SSE 20:56:16 54° E 21:01:23 10° NNE
Cosmos 1812 4.1 20:54:36 10° NNW 20:58:08 35° W 21:01:39 10° SSW
Cosmos 1633 Rocket 3.0 20:55:05 15° S 20:58:46 84° E 21:03:14 10° N
Cosmos 1833 Rocket 2.9 20:53:30 10° SSW 20:59:07 75° WNW 21:04:46 10° NNE
Cosmos 1697 Rocket 2.9 20:53:45 10° NNW 20:59:20 68° WSW 21:03:04 21° S
Cosmos 1867 3.5 21:00:08 10° SSW 21:05:28 60° ESE 21:10:51 10° NE
CENTAUR R/B 3.2 21:04:46 26° SE 21:05:44 28° ESE 21:11:14 10° NE
Okean 1-7 4.2 21:04:01 10° NNE 21:07:41 26° ENE 21:08:30 24° E
Resurs 01 Rocket 3.2 21:05:21 10° SSW 21:09:18 32° W 21:13:16 10° NNW
Cosmos 1707 Rocket 4.4 21:05:34 10° NNW 21:09:44 47° W 21:12:53 16° SSW
Landsat 7 4.0 21:08:59 23° S 21:11:54 69° WSW 21:16:40 10° NNW
FALCON 9 DEB 3.0 21:09:12 10° SW 21:12:40 74° SE 21:15:22 16° ENE
deb Kosmos-1763 4.0 21:14:16 24° SSW 21:16:21 83° WNW 21:20:01 10° NNE
Cosmos 676 Rocket 3.9 21:14:02 13° SSW 21:18:51 80° ESE 21:24:14 10° NNE
IGS 5A 4.1 21:17:35 25° SSW 21:19:45 51° W 21:23:48 10° NNW
Cosmos 192 4.2 21:16:09 10° NNW 21:21:05 86° ENE 21:22:57 39° SSE
ATLAS 5 CENTAUR R/B 3.8 21:19:01 10° N 21:21:08 19° NE 21:23:25 14° E
Meteor 1-25 Rocket 4.1 21:17:53 25° S 21:21:12 73° E 21:26:48 10° NNE
Cosmos 1470 Rocket 3.4 21:19:31 33° S 21:21:29 82° E 21:25:55 10° N
Cosmos 1934 Rocket 4.3 21:17:10 10° SSW 21:23:28 69° W 21:29:52 10° N
Aureole 1 Rocket 4.4 21:17:56 10° SSW 21:24:37 87° WNW 21:32:55 10° NNE
GP-B 3.6 21:23:44 10° N 21:28:07 58° W 21:30:41 23° SSW
NOSS 3-2 (A) 3.2 21:25:51 10° SSW 21:31:27 69° ESE 21:37:52 10° NE
USA 267 3.7 21:26:07 10° NE 21:32:33 62° NNW 21:38:59 10° WSW
Cosmos 921 Rocket 2.8 21:29:49 10° NNW 21:34:04 85° ENE 21:34:50 59° SSE
Cosmos 1862 Rocket 4.2 21:31:58 10° NNW 21:36:20 51° W 21:38:10 30° SSW
NOSS 3-2 (C) 3.5 21:35:51 38° SSE 21:37:27 48° ESE 21:43:32 10° NE
ERS-1 Rocket 3.0 21:36:08 37° S 21:38:07 74° WSW 21:43:10 10° NNW
SAR-Lupe-2 3.6 21:37:53 10° N 21:41:29 75° WNW 21:41:55 63° SW
SL-16 R/B 2.7 21:36:57 10° NNW 21:42:28 48° ENE 21:44:17 35° ESE
Lacrosse 5 2.5 21:38:32 10° NW 21:43:28 49° NNE 21:45:31 31° E
Cosmos 468 Rocket 4.0 21:39:03 10° NNW 21:44:23 69° ENE 21:45:45 48° SE
Cosmos 1741 Rocket 4.1 21:48:22 51° SE 21:49:05 55° ESE 21:54:14 10° NNE
Cosmos 2082 Rocket 3.1 21:46:57 10° SW 21:52:28 50° WNW 21:58:00 10° NNE
CARTOSAT-1 4.5 21:57:12 35° SW 21:58:17 42° W 22:02:24 10° NNW
Terra 1.9 22:00:02 53° SSW 22:01:00 69° WSW 22:05:46 10° NNW
Cosmos 1933 Rocket 4.2 22:01:23 37° SW 22:02:46 53° WNW 22:07:08 10° N
Cosmos 2322 Rocket 2.5 21:59:15 10° NNW 22:04:52 57° ENE 22:06:13 46° ESE
Okean 1 3.9 22:02:52 10° NNW 22:06:47 48° W 22:07:06 47° WSW
Cosmos 1238 Rocket 4.1 22:06:54 25° WNW 22:06:56 25° WNW 22:09:27 10° NNW
Cosmos 2100 Rocket 3.9 22:05:35 49° SSE 22:07:13 72° E 22:13:21 10° NNE
USA 234 3.6 22:06:06 40° S 22:07:59 51° SW 22:14:21 10° WNW
Meteor 1-11 Rocket 4.3 22:09:09 39° E 22:09:20 39° E 22:14:35 10° NNE
Cosmos 1437 Rocket 3.0 22:07:22 10° NNW 22:10:50 60° WNW 22:10:50 60° WNW
Cosmos 1869 Rocket 3.5 22:13:01 78° ENE 22:13:01 78° ENE 22:17:21 10° NNE
SPOT 5 3.8 22:15:08 31° WSW 22:15:54 33° W 22:19:51 10° NNW
Cosmos 2360 Rocket 2.9 22:13:37 10° NNW 22:19:00 42° NE 22:20:19 36° E
ATLAS 3B R/B 3.2 22:21:12 36° ESE 22:21:12 36° ESE 22:26:30 10° NE
Geosat 4.0 22:20:48 63° ESE 22:21:24 71° ENE 22:26:26 10° NNW
Iridium 4 Rocket 3.0 22:21:45 80° NNE 22:21:45 80° NNE 22:25:47 10° N
Cosmos 2173 Rocket 3.9 22:21:11 53° S 22:22:47 87° E 22:28:57 10° N
Cosmos 1703 Rocket 4.2 22:19:50 10° NNW 22:23:59 44° W 22:24:15 44° WSW
Cosmos 1500 3.9 22:25:10 50° N 22:25:10 50° N 22:28:03 10° N
Cosmos 405 Rocket 4.4 22:24:28 25° W 22:25:11 26° WNW 22:28:23 10° NNW
SL-4 R/B 3.0 22:23:05 10° W 22:26:41 40° NNW 22:27:13 38° N
Cosmos 1980 Rocket 3.7 22:22:39 10° NW 22:27:14 26° WSW 22:28:51 22° SW
ALOS 2 4.0 22:27:44 28° ENE 22:27:44 28° ENE 22:31:19 10° N
USA 238 DEB 4.1 22:21:01 10° SW 22:27:35 62° NW 22:34:29 10° NE
USA 238 4.1 22:21:08 10° SW 22:27:42 62° NW 22:34:36 10° NE
Cosmos 1725 Rocket 4.1 22:27:19 51° ESE 22:28:08 55° E 22:34:17 10° NNE
Cosmos 1763 Rocket 3.8 22:25:21 10° NNW 22:30:34 57° WSW 22:31:09 53° SW
SL-08 R/B 4.4 22:32:18 57° ESE 22:32:58 60° E 22:38:57 10° NNE
Cosmos 1536 4.2 22:34:39 31° NE 22:34:39 31° NE 22:37:05 10° NNE
Cosmos 1666 4.1 22:37:32 32° NNE 22:37:32 32° NNE 22:39:43 10° NNE
Cosmos 2333 Rocket 3.7 22:34:22 10° N 22:39:20 28° NE 22:41:19 23° E
Cosmos 2016 Rocket 3.9 22:39:51 62° S 22:41:00 82° E 22:47:24 10° N
Meteor 1-5 Rocket 4.3 22:40:38 58° SSW 22:41:51 80° W 22:47:51 10° N
Cosmos 2061 Rocket 3.9 22:41:22 64° S 22:42:24 83° E 22:48:37 10° N
Lacrosse 4 Rocket 3.9 22:45:23 13° ENE 22:45:23 13° ENE 22:45:58 10° ENE
Meteor 1-13 Rocket 4.0 22:37:23 10° N 22:42:57 89° W 22:43:23 77° S
Cosmos 1459 Rocket 4.2 22:42:36 46° SW 22:44:27 68° W 22:50:48 10° N
Okean 1-7 4.4 22:41:28 10° NNW 22:45:14 30° W 22:45:21 30° W
MOS 1-B Rocket 3.7 22:40:12 10° NNE 22:45:55 87° WNW 22:46:44 67° SSW
Cosmos 2221 Rocket 3.8 22:42:32 10° N 22:46:29 69° NNW 22:46:29 69° NNW
Cosmos 1733 Rocket 3.8 22:50:59 46° NE 22:50:59 46° NE 22:54:18 10° NNE
Okean 3 4.1 22:46:54 10° NNW 22:50:30 55° NW 22:50:30 55° NW
SL-27 R/B 4.5 22:53:09 26° NNW 22:53:09 26° NNW 22:55:01 10° N
Cosmos 1066 Rocket 4.2 22:47:45 10° N 22:53:29 66° ENE 22:53:46 65° E
Cosmos 1864 Rocket 4.3 22:53:23 69° S 22:54:13 86° E 23:00:29 10° N
Meteor 1-23 Rocket 4.3 22:49:28 10° N 22:55:17 66° ENE 22:55:43 64° ESE
CENTAUR R/B 2.9 22:51:50 23° WSW 22:55:44 64° NW 23:02:53 10° NE
Thor Agena Rocket 3.4 22:52:02 10° NNE 22:57:00 84° NE 22:57:00 84° NE
Cosmos 967 Rocket 4.3 22:53:55 10° NW 23:00:20 86° WSW 23:01:03 72° SSE
Cosmos 1802 Rocket 4.3 22:58:40 47° SW 23:00:22 63° WNW 23:06:42 10° N
Cosmos 44 3.5 22:57:08 10° NW 23:01:33 68° WNW 23:01:33 68° WNW
Spot 4 4.1 23:06:33 61° WNW 23:06:33 61° WNW 23:10:57 10° NNW
Cosmos 2233 Rocket 3.8 23:14:31 73° SSE 23:15:04 80° E 23:21:26 10° N
Cosmos 841 Rocket 4.4 23:17:41 10° NW 23:22:05 37° W 23:22:05 37° W
Cosmos 540 Rocket 4.4 23:18:54 10° NW 23:23:10 37° W 23:23:10 37° W
SL-16 R/B 3.4 23:21:30 10° NW 23:26:08 29° W 23:26:08 29° W
Lacrosse 5 3.1 23:21:39 10° WNW 23:24:41 30° W 23:24:41 30° W
Cosmos 1833 4.1 23:28:44 86° NW 23:28:44 86° NW 23:34:25 10° NNE
Cosmos 2322 3.6 23:23:44 10° NNW 23:29:25 76° ENE 23:29:31 75° ENE
Cosmos 1378 Rocket 4.3 23:25:23 10° N 23:28:49 53° NNW 23:28:49 53° NNW
Cosmos 2219 Rocket 2.4 23:32:18 10° NNW 23:37:57 62° ENE 23:38:19 61° E
Tsikada Rocket 4.4 23:32:59 10° NNW 23:39:06 51° W 23:39:45 49° WSW
Cosmos 1975 Rocket 4.2 23:38:56 10° N 23:42:25 40° NE 23:42:25 40° NE
Cosmos 2333 4.1 23:38:01 10° NNW 23:43:44 84° WNW 23:43:44 84° WNW
Cosmos 2322 Rocket 3.7 23:44:03 10° NW 23:48:01 24° W 23:48:01 24° W
Helios 1A 4.0 23:49:48 45° N 23:49:48 45° N 23:52:50 10° N
Cosmos 1486 Rocket 4.1 23:52:11 72° NNW 23:52:11 72° NNW 23:57:02 10° NNE
